Location: Island Grove Observatory.
(44.2333°N, 79.4500°W)
Time: 15:03:53
(UTC-05:00)

X-37B - Pass Details

Date: 06 December 2021
Orbit: 334 x 337 km, 45.0° (Epoch: 11 January)

Event Time Altitude Azimuth Distance (km) Brightness Sun altitude
Rises 17:58:33 0° 212° (SSW) 2,091 5.1 -13.7°
Reaches altitude 10° 18:00:59 10° 190° (S) 1,259 3.5 -14.2°
Maximum altitude 18:02:53 17° 148° (SSE) 958 2.4 -14.5°
Enters shadow 18:03:20 16° 136° (SE) 977 2.3 -14.6°
